Regional Weather Roundup
Issued by NWS

Home | Current Version | Previous Version | Text Only | Print | Product List | Glossary On
Versions: 1 2 3 4 5 6 7 8 9 10 11 12 13 14 15 16 17 18 19 20 21 22 23 24 25 26 27 28 29 30 31 32 33 34 35 36 37 38 39 40 41 42 43 44 45 46 47 48 49 50
000
ASUS43 KLMK 032110
RWRKY
KENTUCKY REGIONAL WEATHER ROUNDUP
NATIONAL WEATHER SERVICE LOUISVILLE KY
500 PM EDT WED JUN 03 2015

NOTE "FAIR" INDICATES FEW OR NO CLOUDS BELOW 12,000 FEET
WITH NO SIGNIFICANT WEATHER AND/OR OBSTRUCTIONS TO VISIBILITY.

KYZ001>023-026-027-061>063-070>075-032200-
WESTERN AND SOUTH CENTRAL KENTUCKY

CITY           SKY/WX    TMP DP  RH WIND       PRES   REMARKS
PADUCAH        SUNNY     78  58  49 VRB3      29.99F
HENDERSON      SUNNY     72  55  56 NE7       30.00F
OWENSBORO      CLOUDY    68  58  70 CALM      30.03F
HOPKINSVILLE   MOSUNNY   72  58  62 VRB2      29.99F
BOWLING GREEN  MOSUNNY   73  59  61 NE7       30.01F
GLASGOW        PTSUNNY   72  56  57 N7        30.01F
$$

KYZ024-025-028>034-038-045-046-053-032200-
NORTH CENTRAL KENTUCKY

CITY           SKY/WX    TMP DP  RH WIND       PRES   REMARKS
LOUISVILLE/SDF CLOUDY    71  56  58 VRB3      30.02F
LOUISVILLE/LOU CLOUDY    69  56  62 CALM      30.03F
FORT KNOX      CLOUDY    67  57  71 E6        30.02S
$$

KYZ035>037-039>044-047>052-055>060-089>105-032200-
NORTHEAST KENTUCKY

CITY           SKY/WX    TMP DP  RH WIND       PRES   REMARKS
LEXINGTON      CLOUDY    66  57  72 N3        30.04F
COVINGTON      CLOUDY    73  57  57 VRB7      30.02F
FRANKFORT      CLOUDY    68  57  68 SE7       30.03F
$$

KYZ054-064>069-076>088-106>120-032200-
SOUTHEAST KENTUCKY

CITY           SKY/WX    TMP DP  RH WIND       PRES   REMARKS
JACKSON        MOSUNNY   72  60  66 CALM      30.02F
LONDON         SUNNY     74  57  55 N8        30.01F
SOMERSET       MOSUNNY   73  59  60 NW5       30.02F
MIDDLESBORO    MOSUNNY   80  59  49 SE3       29.98S
MONTICELLO     PTCLDY    74  61  63 N5        30.03F
$$



USA.gov is the U.S. government's official web portal to all federal, state and local government web resources and services.